Вернуться в каталог

FENGYUN 1C DEB

АктивенSSO
NORAD 29870·DEBRIS·🇨🇳 China

Запущен May 10, 1999 с Taiyuan Satellite Launch Center

Loading…

Ближайшие Пролёты (ближайшие 24 часа)

TLE

СвежийSource: Space-Track

Эпоха: Sep 14, 2026, 09:21 UTC

1 29870U 99025FQ  26257.39010506  .00000061  00000-0  37611-4 0  9996
2 29870  98.4961 225.8453 0121157 101.2772  64.1540 14.29072397 25282

Отслеживайте FENGYUN 1C DEB в реальном времени с AllMySat

Download on the App Store